Location: Aghk�ilisa
(40.0189°N, 45.0097°E)
Time: 14:26:52
(UTC+00:00)

Cosmos 1726 - Pass Details

Date: 21 October 2019
Orbit: 483 x 500 km, 82.5° (Epoch: 16 November)

Event Time Altitude Azimuth Distance (km) Brightness Sun altitude
Rises 15:19:39 0° 208° (SSW) 2,544 6.2 -13.6°
Reaches altitude 10° 15:21:54 10° 219° (SW) 1,666 5.4 -14.0°
Maximum altitude 15:25:10 31° 282° (WNW) 879 4.1 -14.6°
Drops below altitude 10° 15:28:27 10° 346° (NNW) 1,673 4.9 -15.2°
Sets 15:30:44 0° 358° (N) 2,557 5.8 -15.7°
